Nueva Ocotepeque, Honduras

5:44 PM CST on June 28, 2017 (GMT -0600)
Nueva Ocotepeque

Weather History for MHSC - March, 2013

Change the Weather History Date:

Monday, March 11, 2013

  Actual Average (MHSR) Record (MHSR)
Temperature  
Mean Temperature 77 °F -  
Max Temperature 95 °F 78 °F 88 °F (2016)
Min Temperature 59 °F 58 °F 51 °F (2002)
Cooling Degree Days 12    
Growing Degree Days 27 (Base 50)    
Moisture  
Dew Point 61 °F    
Average Humidity 55    
Maximum Humidity 97    
Minimum Humidity 15    
Precipitation  
Precipitation 0.00 in - - ()
Sea Level Pressure  
Sea Level Pressure 29.81 in    
Wind  
Wind Speed 7 mph ()    
Max Wind Speed 23 mph    
Max Gust Speed 28 mph    
Visibility 6.3 miles    
Events Rain    
Averages and records for this station are not official NWS values.
T = Trace of Precipitation, MM = Missing Value Source: Averaged Metar Reports

Daily Weather History Graph

Daily Weather History Graph

Search for Another Location

Airport or City:

Trip Planner

Search our weather history database for the weather conditions in past years. The results will help you decide how hot, cold, wet, or windy it might be!

Date:

Astronomy

Mar. 11, 2013 Rise Set
Actual Time 6:06 AM CST 6:06 PM CST
Civil Twilight 5:45 AM CST 6:27 PM CST
Nautical Twilight 5:20 AM CST 6:52 PM CST
Astronomical Twilight 4:55 AM CST 7:17 PM CST
Moon 5:45 AM CST (3/11) 6:08 PM CST (3/11)
Length of Visible Light 12h 42m
Length of Day
11h 59m
Waning Crescent, 0% of the Moon is Illuminated
Mar 11
Waning Crescent
Mar 11
New
Mar 19
First Quarter
Mar 27
Full
Apr 2
Last Quarter

Hourly Weather History & Observations

Time (CST) Temp. Heat Index Dew Point Humidity Pressure Visibility Wind Dir Wind Speed Gust Speed Precip Events Conditions
12:58 AM 74.5 °F - 63.0 °F 67% 29.79 in 6.2 mi SE 5.8 mph - N/A   Partly Cloudy
1:58 AM 71.4 °F - 62.6 °F 74% 29.76 in 6.2 mi South 5.8 mph - N/A   Clear
2:58 AM 72.3 °F - 62.2 °F 70% 29.76 in 6.2 mi SSE 4.6 mph - N/A   Clear
3:58 AM 71.2 °F - 62.2 °F 73% 29.76 in 6.2 mi East 4.6 mph - N/A   Clear
4:58 AM 68.4 °F - 61.5 °F 79% 29.78 in 5.0 mi NNE 2.3 mph - N/A   Haze
5:58 AM 66.4 °F - 61.3 °F 84% 29.83 in 6.2 mi ESE 4.6 mph - N/A   Clear
6:00 AM 60 °F - 59 °F 97%  in 7 mi Calm Calm - -   Smoke
6:58 AM 69.3 °F - 61.9 °F 77% 29.84 in 6.2 mi ESE 4.6 mph - N/A   Clear
7:58 AM 77.0 °F - 63.1 °F 62% 29.85 in 6.2 mi SSE 6.9 mph - N/A   Clear
8:58 AM 81.7 °F 83.0 °F 63.5 °F 54% 29.84 in 6.2 mi South 8.1 mph - N/A   Clear
9:00 AM 77 °F - 64 °F 54%  in 7 mi Calm Calm - -   Smoke
9:58 AM 85.3 °F 85.9 °F 62.6 °F 46% 29.83 in 6.2 mi South 8.1 mph - N/A   Clear
10:58 AM 87.4 °F 88.0 °F 62.2 °F 43% 29.81 in 6.2 mi Variable 2.3 mph - N/A   Clear
11:58 AM 91.0 °F 90.5 °F 60.1 °F 35% 29.76 in 6.2 mi Variable 3.5 mph - N/A   Clear
12:00 PM 89 °F - 64 °F 33%  in 7 mi Calm Calm - -   Smoke
12:58 PM 94.1 °F 92.5 °F 56.7 °F 28% 29.72 in 6.2 mi North 10.4 mph - N/A   Clear
1:58 PM 97.2 °F - 51.3 °F 21% 29.69 in 6.2 mi North 5.8 mph - N/A   Clear
2:11 PM 96.8 °F - 51.8 °F 22% 29.82 in 6.2 mi NW 15.0 mph 23.0 mph N/A   Clear
2:16 PM 96.8 °F - 50.0 °F 20% 29.82 in 6.2 mi NNE 12.7 mph 23.0 mph N/A   Clear
2:58 PM 97.9 °F - 42.8 °F 15% 29.65 in 6.2 mi North 12.7 mph - N/A   Clear
3:36 PM 96.8 °F - 50.0 °F 20% 29.79 in 6.2 mi North 16.1 mph - N/A   Partly Cloudy
3:58 PM 95.9 °F - 50.7 °F 22% 29.65 in 6.2 mi North 18.4 mph 23.0 mph N/A   Partly Cloudy
4:03 PM 95.0 °F - 51.8 °F 23% 29.79 in 6.2 mi North 15.0 mph 23.0 mph N/A   Partly Cloudy
4:58 PM 92.7 °F 90.6 °F 54.9 °F 28% 29.68 in 6.2 mi North 15.0 mph - N/A   Scattered Clouds
5:58 PM 87.8 °F 88.5 °F 62.4 °F 43% 29.73 in 6.2 mi North 19.6 mph 25.3 mph N/A   Mostly Cloudy
6:00 PM 86 °F - 64 °F 38%  in 7 mi North 4.6 mph - -   Smoke
6:58 PM 82.4 °F 85.2 °F 67.8 °F 61% 29.76 in 6.2 mi NNW 23.0 mph 27.6 mph N/A   Scattered Clouds
7:58 PM 81.1 °F 84.0 °F 68.2 °F 65% 29.81 in 6.2 mi North 19.6 mph 26.5 mph N/A   Mostly Cloudy
8:58 PM 79.0 °F - 68.5 °F 70% 29.83 in 6.2 mi North 20.7 mph 26.5 mph N/A   Mostly Cloudy
9:58 PM 77.4 °F - 69.6 °F 77% 29.84 in 6.2 mi North 12.7 mph - N/A   Overcast
10:04 PM 77.0 °F - 69.8 °F 78% 29.98 in 6.2 mi North 15.0 mph - N/A   Light Drizzle
10:36 PM 75.2 °F - 69.8 °F 83% 29.99 in 6.2 mi NNW 11.5 mph - N/A   Mostly Cloudy
10:58 PM 75.2 °F - 69.8 °F 83% 29.86 in 6.2 mi NNW 13.8 mph - 0.00 in   Overcast
11:43 PM 75.2 °F - 69.8 °F 83% 29.99 in 6.2 mi North 13.8 mph - N/A Rain Light Rain
11:56 PM 75.2 °F - 69.8 °F 83% 29.99 in 6.2 mi North 10.4 mph - N/A   Mostly Cloudy
11:58 PM 75.0 °F - 69.6 °F 83% 29.85 in 6.2 mi North 12.7 mph - 0.00 in   Overcast